Terminal Aerodrome Forecast
Issued by NWS Wilmington, OH

Current Version | Previous Version | Text Only | Print | Product List | Glossary Off
Versions: 1 2 3 4 5 6 7 8 9 10 11 12 13 14 15 16 17 18 19 20 21 22 23 24 25 26 27 28 29 30 31 32 33 34

333
FTUS41 KILN 280541
TAFCVG
TAF
KCVG 280541Z 2806/2912 07006KT 5SM BR VCSH BKN040 OVC080
     FM280800 10004KT 3SM BR OVC006
     FM281500 23006KT P6SM OVC012
     FM281700 25008KT P6SM VCTS BKN040CB
     FM282100 27009KT P6SM SCT050
     FM290800 28004KT P6SM OVC012=

USA.gov is the U.S. government's official web portal to all federal, state and local government web resources and services.